﻿LOCALDATE,LOCALTIME,LATITUDE,N_S,LONGITUDE,E_W,ALTITUDE,SPEED (km/hr) ,DateTime,LAT,utmX,utmY,wavFileName,wavDateTime,tlo,thi,Direction,Speed (knots)
11/08/2021,9:58:35,36.268063,S,174.790573,E,4.629241,18.396,11/08/2021 9:58,-36.268063,301530.7958,5984053.424,671105061.210811095758.wav,11/08/2021 9:57,0:00:37,0:00:42,S to N,10
11/08/2021,9:58:40,36.267834,S,174.790543,E,3.707443,18.143999,11/08/2021 9:58,-36.267834,301527.5207,5984078.769,671105061.210811095758.wav,11/08/2021 9:57,0:00:42,0:00:47,S to N,10
11/08/2021,9:58:45,36.267601,S,174.790512,E,3.421066,18.756001,11/08/2021 9:58,-36.267601,301524.1456,5984104.556,671105061.210811095758.wav,11/08/2021 9:57,0:00:47,0:00:52,S to N,10
11/08/2021,9:58:50,36.267368,S,174.790466,E,3.093368,18.756001,11/08/2021 9:58,-36.267368,301519.4229,5984130.312,671105061.210811095758.wav,11/08/2021 9:57,0:00:52,0:00:57,S to N,10
11/08/2021,9:58:55,36.267136,S,174.790421,E,2.720321,18.252001,11/08/2021 9:58,-36.267136,301514.7925,5984155.958,671105061.210811095758.wav,11/08/2021 9:57,0:00:57,0:01:02,S to N,10
11/08/2021,9:59:00,36.266911,S,174.790375,E,2.161178,18,11/08/2021 9:59,-36.266911,301510.0899,5984180.827,671105061.210811095758.wav,11/08/2021 9:57,0:01:02,0:01:07,S to N,10
11/08/2021,9:59:05,36.266693,S,174.790314,E,1.769798,17.82,11/08/2021 9:59,-36.266693,301504.0575,5984204.887,671105061.210811095758.wav,11/08/2021 9:57,0:01:07,0:01:12,S to N,10
11/08/2021,9:59:10,36.266468,S,174.790329,E,1.330253,17.82,11/08/2021 9:59,-36.266468,301504.8353,5984229.881,671105061.210811095758.wav,11/08/2021 9:57,0:01:12,0:01:17,S to N,10
11/08/2021,9:59:15,36.266254,S,174.79039,E,0.651699,17.388,11/08/2021 9:59,-36.266254,301509.7739,5984253.748,671105061.210811095758.wav,11/08/2021 9:57,0:01:17,0:01:22,S to N,10
11/08/2021,9:59:20,36.266045,S,174.790451,E,0.271788,17.676001,11/08/2021 9:59,-36.266045,301514.7252,5984277.06,671105061.210811095758.wav,11/08/2021 9:57,0:01:22,0:01:27,S to N,10
11/08/2021,9:59:25,36.265839,S,174.790512,E,0.268995,16.92,11/08/2021 9:59,-36.265839,301519.6841,5984300.04,671105061.210811095758.wav,11/08/2021 9:57,0:01:27,0:01:32,S to N,10
11/08/2021,9:59:30,36.26564,S,174.790558,E,0.288855,17.208,11/08/2021 9:59,-36.26564,301523.313,5984322.212,671105061.210811095758.wav,11/08/2021 9:57,0:01:32,0:01:37,S to N,10
11/08/2021,9:59:35,36.265434,S,174.790588,E,-1.04998,17.243999,11/08/2021 9:59,-36.265434,301525.4868,5984345.128,671105061.210811095758.wav,11/08/2021 9:57,0:01:37,0:01:42,S to N,10
11/08/2021,9:59:40,36.265205,S,174.790619,E,-0.776836,19.044001,11/08/2021 9:59,-36.265205,301527.6922,5984370.598,671105061.210811095758.wav,11/08/2021 9:57,0:01:42,0:01:47,S to N,10
11/08/2021,9:59:45,36.264957,S,174.790634,E,-0.905147,19.799999,11/08/2021 9:59,-36.264957,301528.412,5984398.143,671105061.210811095758.wav,11/08/2021 9:57,0:01:47,0:01:52,S to N,10
11/08/2021,9:59:50,36.264702,S,174.790634,E,-0.779873,19.656,11/08/2021 9:59,-36.264702,301527.7664,5984426.434,671105061.210811095758.wav,11/08/2021 9:57,0:01:52,0:01:57,S to N,10
11/08/2021,9:59:55,36.264442,S,174.790634,E,-1.022728,20.375999,11/08/2021 9:59,-36.264442,301527.1081,5984455.28,671105061.210811095758.wav,11/08/2021 9:57,0:01:57,0:02:02,S to N,10
11/08/2021,10:00:00,36.264191,S,174.790604,E,-1.138328,19.691999,11/08/2021 10:00,-36.264191,301523.7772,5984483.065,671105061.210811095758.wav,11/08/2021 9:57,0:02:02,0:02:07,S to N,10
11/08/2021,10:00:05,36.263947,S,174.790634,E,-1.351097,19.764,11/08/2021 10:00,-36.263947,301525.8548,5984510.197,671105061.210811095758.wav,11/08/2021 9:57,0:02:07,0:02:12,S to N,10
11/08/2021,10:00:10,36.263702,S,174.790649,E,-1.417076,19.728001,11/08/2021 10:00,-36.263702,301526.5823,5984537.409,671105061.210811095758.wav,11/08/2021 9:57,0:02:12,0:02:17,S to N,10
11/08/2021,10:00:15,36.263451,S,174.790634,E,-1.713432,19.944,11/08/2021 10:00,-36.263451,301524.5991,5984565.226,671105061.210811095758.wav,11/08/2021 9:57,0:02:17,0:02:22,S to N,10
11/08/2021,10:00:20,36.263206,S,174.790588,E,-2.049239,19.476,11/08/2021 10:00,-36.263206,301519.8458,5984592.313,671105061.210811095758.wav,11/08/2021 9:57,0:02:22,0:02:27,S to N,10
11/08/2021,10:00:25,36.262959,S,174.790573,E,-2.054916,19.728001,11/08/2021 10:00,-36.262959,301517.8728,5984619.685,671105061.210811095758.wav,11/08/2021 9:57,0:02:27,0:02:32,S to N,10
11/08/2021,10:00:30,36.262722,S,174.790604,E,-2.060409,18.9,11/08/2021 10:00,-36.262722,301520.058,5984646.043,671105061.210811095758.wav,11/08/2021 9:57,0:02:32,0:02:37,S to N,10
11/08/2021,10:00:35,36.262497,S,174.79068,E,-2.486617,18.431999,11/08/2021 10:00,-36.262497,301526.3168,5984671.161,671105061.210811095758.wav,11/08/2021 9:57,0:02:37,0:02:42,S to N,10
11/08/2021,10:00:40,36.262264,S,174.790741,E,-2.479659,19.440001,11/08/2021 10:00,-36.262264,301531.2077,5984697.136,671105061.210811095758.wav,11/08/2021 9:57,0:02:42,0:02:47,S to N,10
11/08/2021,10:00:45,36.262024,S,174.790771,E,-2.430709,19.440001,11/08/2021 10:00,-36.262024,301533.2956,5984723.824,671105061.210811095758.wav,11/08/2021 9:57,0:02:47,0:02:52,S to N,10
11/08/2021,10:00:50,36.261787,S,174.790726,E,-2.936507,19.007999,11/08/2021 10:00,-36.261787,301528.6524,5984750.026,671105061.210811095758.wav,11/08/2021 9:57,0:02:52,0:02:57,S to N,10
11/08/2021,10:00:55,36.261547,S,174.79071,E,-2.949752,19.224001,11/08/2021 10:00,-36.261547,301526.6073,5984776.62,671105061.210811095758.wav,11/08/2021 9:57,0:02:57,0:03:02,S to N,10
11/08/2021,10:01:00,36.261326,S,174.790787,E,-2.335983,19.332001,11/08/2021 10:01,-36.261326,301532.9662,5984801.296,671105061.210811095758.wav,11/08/2021 9:57,0:03:02,0:03:07,S to N,10
11/08/2021,10:02:20,36.263554,S,174.793808,E,1.402092,17.82,11/08/2021 10:02,-36.263554,301810.0342,5984560.301,671105061.210811095758.wav,11/08/2021 9:57,0:04:22,0:04:27,NE to SW ,10
11/08/2021,10:02:25,36.263737,S,174.793671,E,1.905998,17.028,11/08/2021 10:02,-36.263737,301798.1878,5984539.718,671105061.210811095758.wav,11/08/2021 9:57,0:04:27,0:04:32,NE to SW ,10
11/08/2021,10:02:30,36.263905,S,174.793488,E,2.356246,17.639999,11/08/2021 10:02,-36.263905,301782.1706,5984520.705,671105061.210811095758.wav,11/08/2021 9:57,0:04:32,0:04:37,NE to SW ,10
11/08/2021,10:02:35,36.264065,S,174.793289,E,2.910201,17.568001,11/08/2021 10:02,-36.264065,301764.6958,5984502.546,671105061.210811095758.wav,11/08/2021 9:57,0:04:37,0:04:42,NE to SW ,10
11/08/2021,10:02:40,36.264233,S,174.793121,E,3.464095,17.424,11/08/2021 10:02,-36.264233,301750.0264,5984483.563,671105061.210811095758.wav,11/08/2021 9:57,0:04:42,0:04:47,NE to SW ,10
11/08/2021,10:02:45,36.264408,S,174.792938,E,3.809737,19.115999,11/08/2021 10:02,-36.264408,301734.0272,5984463.773,671105061.210811095758.wav,11/08/2021 9:57,0:04:47,0:04:52,NE to SW ,10
11/08/2021,10:03:00,36.265003,S,174.792343,E,3.783981,19.872,11/08/2021 10:03,-36.265003,301682.0741,5984396.542,671105061.210811100258.wav,11/08/2021 10:02,0:00:02,0:00:07,NE to SW ,10
11/08/2021,10:03:05,36.265202,S,174.792145,E,4.147917,20.124001,11/08/2021 10:03,-36.265202,301664.7882,5984374.059,671105061.210811100258.wav,11/08/2021 10:02,0:00:07,0:00:12,NE to SW ,10
11/08/2021,10:03:10,36.265388,S,174.791946,E,4.314299,19.224001,11/08/2021 10:03,-36.265388,301647.3797,5984353.015,671105061.210811100258.wav,11/08/2021 10:02,0:00:12,0:00:17,NE to SW ,10
11/08/2021,10:03:15,36.265572,S,174.791748,E,4.462981,19.476,11/08/2021 10:03,-36.265572,301630.056,5984332.196,671105061.210811100258.wav,11/08/2021 10:02,0:00:17,0:00:22,NE to SW ,10
11/08/2021,10:03:20,36.265755,S,174.791565,E,4.667082,19.656,11/08/2021 10:03,-36.265755,301614.0776,5984311.518,671105061.210811100258.wav,11/08/2021 10:02,0:00:22,0:00:27,NE to SW ,10
11/08/2021,10:03:25,36.265938,S,174.791351,E,4.771208,19.26,11/08/2021 10:03,-36.265938,301595.3141,5984290.777,671105061.210811100258.wav,11/08/2021 10:02,0:00:27,0:00:32,NE to SW ,10
11/08/2021,10:03:30,36.266113,S,174.791168,E,4.820891,18.936001,11/08/2021 10:03,-36.266113,301579.3156,5984270.986,671105061.210811100258.wav,11/08/2021 10:02,0:00:32,0:00:37,NE to SW ,10
11/08/2021,10:03:35,36.266293,S,174.79097,E,5.177092,19.044001,11/08/2021 10:03,-36.266293,301561.9821,5984250.61,671105061.210811100258.wav,11/08/2021 10:02,0:00:37,0:00:42,NE to SW ,10
11/08/2021,10:03:40,36.266457,S,174.790802,E,5.180144,17.388,11/08/2021 10:03,-36.266457,301547.3036,5984232.071,671105061.210811100258.wav,11/08/2021 10:02,0:00:42,0:00:47,NE to SW ,10
11/08/2021,10:03:45,36.266621,S,174.790619,E,5.522063,18.612,11/08/2021 10:03,-36.266621,301531.2774,5984213.501,671105061.210811100258.wav,11/08/2021 10:02,0:00:47,0:00:52,NE to SW ,10
11/08/2021,10:03:50,36.266781,S,174.790421,E,5.802214,18.143999,11/08/2021 10:03,-36.266781,301513.8935,5984195.344,671105061.210811100258.wav,11/08/2021 10:02,0:00:52,0:00:57,NE to SW ,10
11/08/2021,10:03:55,36.266937,S,174.790222,E,5.963591,17.964001,11/08/2021 10:03,-36.266937,301496.4098,5984177.628,671105061.210811100258.wav,11/08/2021 10:02,0:00:57,0:01:02,NE to SW ,10
11/08/2021,10:04:00,36.26709,S,174.790009,E,6.119841,17.82,11/08/2021 10:04,-36.26709,301477.6607,5984160.217,671105061.210811100258.wav,11/08/2021 10:02,0:01:02,0:01:07,NE to SW ,10
11/08/2021,10:04:05,36.267235,S,174.789795,E,6.105803,17.927999,11/08/2021 10:04,-36.267235,301458.8016,5984143.691,671105061.210811100258.wav,11/08/2021 10:02,0:01:07,0:01:12,NE to SW ,10
11/08/2021,10:06:20,36.266235,S,174.784683,E,4.460661,18.827999,11/08/2021 10:06,-36.266235,300996.9862,5984244.138,671105061.210811100258.wav,11/08/2021 10:02,0:03:22,0:03:27,W to E,10
11/08/2021,10:06:25,36.266285,S,174.784973,E,4.137175,19.476,11/08/2021 10:06,-36.266285,301023.1678,5984239.187,671105061.210811100258.wav,11/08/2021 10:02,0:03:27,0:03:32,W to E,10
11/08/2021,10:06:30,36.266357,S,174.785248,E,3.766036,18.288,11/08/2021 10:06,-36.266357,301048.0577,5984231.764,671105061.210811100258.wav,11/08/2021 10:02,0:03:32,0:03:37,W to E,10
11/08/2021,10:06:35,36.266418,S,174.785522,E,3.6165,19.296,11/08/2021 10:06,-36.266418,301072.8297,5984225.56,671105061.210811100258.wav,11/08/2021 10:02,0:03:37,0:03:42,W to E,10
11/08/2021,10:06:40,36.266464,S,174.785828,E,3.744613,19.836,11/08/2021 10:06,-36.266464,301100.4386,5984221.085,671105061.210811100258.wav,11/08/2021 10:02,0:03:42,0:03:47,W to E,10
11/08/2021,10:06:45,36.266514,S,174.786102,E,3.355087,18.612,11/08/2021 10:06,-36.266514,301125.1827,5984216.101,671105061.210811100258.wav,11/08/2021 10:02,0:03:47,0:03:52,W to E,10
11/08/2021,10:06:50,36.266563,S,174.786392,E,3.327377,18.972,11/08/2021 10:06,-36.266563,301151.3617,5984211.26,671105061.210811100258.wav,11/08/2021 10:02,0:03:52,0:03:57,W to E,10
11/08/2021,10:06:55,36.266609,S,174.786667,E,3.079086,18.396,11/08/2021 10:06,-36.266609,301176.1853,5984206.722,671105061.210811100258.wav,11/08/2021 10:02,0:03:57,0:04:02,W to E,10
11/08/2021,10:07:00,36.266644,S,174.786957,E,2.972518,18.684,11/08/2021 10:07,-36.266644,301202.3287,5984203.434,671105061.210811100258.wav,11/08/2021 10:02,0:04:02,0:04:07,W to E,10
11/08/2021,10:07:05,36.266678,S,174.787247,E,3.068465,19.511999,11/08/2021 10:07,-36.266678,301228.4696,5984200.258,671105061.210811100258.wav,11/08/2021 10:02,0:04:07,0:04:12,W to E,10
11/08/2021,10:07:10,36.266708,S,174.787537,E,2.968551,19.511999,11/08/2021 10:07,-36.266708,301254.6003,5984197.525,671105061.210811100258.wav,11/08/2021 10:02,0:04:12,0:04:17,W to E,10
11/08/2021,10:07:15,36.266739,S,174.787842,E,3.190231,20.232,11/08/2021 10:07,-36.266739,301282.0811,5984194.712,671105061.210811100258.wav,11/08/2021 10:02,0:04:17,0:04:22,W to E,10
11/08/2021,10:07:20,36.266788,S,174.788162,E,3.017379,20.232,11/08/2021 10:07,-36.266788,301310.9552,5984189.932,671105061.210811100258.wav,11/08/2021 10:02,0:04:22,0:04:27,W to E,10
11/08/2021,10:07:25,36.266815,S,174.788452,E,2.746688,18.504,11/08/2021 10:07,-36.266815,301337.0782,5984187.532,671105061.210811100258.wav,11/08/2021 10:02,0:04:27,0:04:32,W to E,10
11/08/2021,10:07:30,36.266842,S,174.788742,E,2.644027,19.368,11/08/2021 10:07,-36.266842,301363.2012,5984185.132,671105061.210811100258.wav,11/08/2021 10:02,0:04:32,0:04:37,W to E,10
11/08/2021,10:07:35,36.266876,S,174.789032,E,2.445663,19.332001,11/08/2021 10:07,-36.266876,301389.3419,5984181.955,671105061.210811100258.wav,11/08/2021 10:02,0:04:37,0:04:42,W to E,10
11/08/2021,10:07:40,36.266884,S,174.789352,E,2.184371,20.591999,11/08/2021 10:07,-36.266884,301418.112,5984181.724,671105061.210811100258.wav,11/08/2021 10:02,0:04:42,0:04:47,W to E,10
11/08/2021,10:07:45,36.266899,S,174.789658,E,1.921043,20.34,11/08/2021 10:07,-36.266899,301445.642,5984180.687,671105061.210811100258.wav,11/08/2021 10:02,0:04:47,0:04:52,W to E,10
11/08/2021,10:08:00,36.266922,S,174.790619,E,1.129814,20.412001,11/08/2021 10:08,-36.266922,301532.0395,5984180.107,671105061.210811100758.wav,11/08/2021 10:07,0:00:02,0:00:07,W to E,10
11/08/2021,10:08:05,36.266945,S,174.790924,E,1.002189,20.16,11/08/2021 10:08,-36.266945,301559.4999,5984178.18,671105061.210811100758.wav,11/08/2021 10:07,0:00:07,0:00:12,W to E,10
11/08/2021,10:08:10,36.266979,S,174.791229,E,0.875591,19.511999,11/08/2021 10:08,-36.266979,301586.9881,5984175.033,671105061.210811100758.wav,11/08/2021 10:07,0:00:12,0:00:17,W to E,10
11/08/2021,10:08:15,36.266983,S,174.791534,E,0.792797,19.799999,11/08/2021 10:08,-36.266983,301614.4004,5984175.215,671105061.210811100758.wav,11/08/2021 10:07,0:00:17,0:00:22,W to E,10
11/08/2021,10:08:20,36.266987,S,174.791855,E,0.549175,20.304001,11/08/2021 10:08,-36.266987,301643.2501,5984175.429,671105061.210811100758.wav,11/08/2021 10:07,0:00:22,0:00:27,W to E,10
11/08/2021,10:08:25,36.266991,S,174.792175,E,0.325636,20.232,11/08/2021 10:08,-36.266991,301672.01,5984175.641,671105061.210811100758.wav,11/08/2021 10:07,0:00:27,0:00:32,W to E,10
11/08/2021,10:08:30,36.266975,S,174.79248,E,0.121343,19.872,11/08/2021 10:08,-36.266975,301699.3717,5984178.041,671105061.210811100758.wav,11/08/2021 10:07,0:00:32,0:00:37,W to E,10
11/08/2021,10:08:35,36.266953,S,174.792801,E,-0.009931,20.16,11/08/2021 10:08,-36.266953,301728.1556,5984181.139,671105061.210811100758.wav,11/08/2021 10:07,0:00:37,0:00:42,W to E,10
11/08/2021,10:08:40,36.266922,S,174.793106,E,0.1268,19.403999,11/08/2021 10:08,-36.266922,301755.4794,5984185.203,671105061.210811100758.wav,11/08/2021 10:07,0:00:42,0:00:47,W to E,10
11/08/2021,10:08:45,36.266899,S,174.793396,E,-0.022522,18.864,11/08/2021 10:08,-36.266899,301781.4757,5984188.349,671105061.210811100758.wav,11/08/2021 10:07,0:00:47,0:00:52,W to E,10
11/08/2021,10:08:50,36.26688,S,174.793701,E,-0.25292,19.98,11/08/2021 10:08,-36.26688,301808.8298,5984191.081,671105061.210811100758.wav,11/08/2021 10:07,0:00:52,0:00:57,W to E,10
11/08/2021,10:10:15,36.268108,S,174.792145,E,-0.662578,17.243999,11/08/2021 10:10,-36.268108,301672.141,5984051.654,671105061.210811100758.wav,11/08/2021 10:07,0:02:17,0:02:22,SE to NW,10
11/08/2021,10:10:20,36.267963,S,174.791946,E,-0.965114,18.18,11/08/2021 10:10,-36.267963,301653.8956,5984067.333,671105061.210811100758.wav,11/08/2021 10:07,0:02:22,0:02:27,SE to NW,10
11/08/2021,10:10:25,36.267799,S,174.791718,E,-1.099235,19.511999,11/08/2021 10:10,-36.267799,301632.9966,5984085.061,671105061.210811100758.wav,11/08/2021 10:07,0:02:27,0:02:32,SE to NW,10
11/08/2021,10:10:30,36.267643,S,174.791504,E,-1.615745,19.476,11/08/2021 10:10,-36.267643,301613.3755,5984101.93,671105061.210811100758.wav,11/08/2021 10:07,0:02:32,0:02:37,SE to NW,10
11/08/2021,10:10:35,36.267483,S,174.791275,E,-2.026351,19.403999,11/08/2021 10:10,-36.267483,301592.3967,5984119.212,671105061.210811100758.wav,11/08/2021 10:07,0:02:37,0:02:42,SE to NW,10
11/08/2021,10:10:40,36.267323,S,174.791046,E,-1.988487,19.511999,11/08/2021 10:10,-36.267323,301571.4177,5984136.493,671105061.210811100758.wav,11/08/2021 10:07,0:02:42,0:02:47,SE to NW,10
11/08/2021,10:10:45,36.267159,S,174.790817,E,-1.809532,19.440001,11/08/2021 10:10,-36.267159,301550.4285,5984154.219,671105061.210811100758.wav,11/08/2021 10:07,0:02:47,0:02:52,SE to NW,10
11/08/2021,10:10:50,36.266994,S,174.790588,E,-1.546409,19.368,11/08/2021 10:10,-36.266994,301529.4367,5984172.055,671105061.210811100758.wav,11/08/2021 10:07,0:02:52,0:02:57,SE to NW,10
11/08/2021,10:10:55,36.266834,S,174.790359,E,-1.170494,19.188,11/08/2021 10:10,-36.266834,301508.4575,5984189.337,671105061.210811100758.wav,11/08/2021 10:07,0:02:57,0:03:02,SE to NW,10
11/08/2021,10:11:00,36.266663,S,174.790146,E,-0.598354,19.476,11/08/2021 10:11,-36.266663,301488.8878,5984207.871,671105061.210811100758.wav,11/08/2021 10:07,0:03:02,0:03:07,SE to NW,10
11/08/2021,10:11:05,36.266479,S,174.789948,E,-0.019108,19.440001,11/08/2021 10:11,-36.266479,301470.6328,5984227.879,671105061.210811100758.wav,11/08/2021 10:07,0:03:07,0:03:12,SE to NW,10
11/08/2021,10:11:10,36.266304,S,174.789749,E,0.219439,19.115999,11/08/2021 10:11,-36.266304,301452.3106,5984246.886,671105061.210811100758.wav,11/08/2021 10:07,0:03:12,0:03:17,SE to NW,10
11/08/2021,10:11:15,36.266136,S,174.789536,E,0.246245,19.224001,11/08/2021 10:11,-36.266136,301432.7483,5984265.088,671105061.210811100758.wav,11/08/2021 10:07,0:03:17,0:03:22,SE to NW,10
11/08/2021,10:11:20,36.265965,S,174.789322,E,0.678158,19.296,11/08/2021 10:11,-36.265965,301413.0884,5984283.62,671105061.210811100758.wav,11/08/2021 10:07,0:03:22,0:03:27,SE to NW,10
11/08/2021,10:11:25,36.265789,S,174.789124,E,0.782512,19.26,11/08/2021 10:11,-36.265789,301394.8534,5984302.74,671105061.210811100758.wav,11/08/2021 10:07,0:03:27,0:03:32,SE to NW,10
11/08/2021,10:11:30,36.265617,S,174.78891,E,0.895931,19.224001,11/08/2021 10:11,-36.265617,301375.1908,5984321.384,671105061.210811100758.wav,11/08/2021 10:07,0:03:32,0:03:37,SE to NW,10
11/08/2021,10:11:35,36.265453,S,174.788696,E,1.12487,18.612,11/08/2021 10:11,-36.265453,301355.5485,5984339.139,671105061.210811100758.wav,11/08/2021 10:07,0:03:37,0:03:42,SE to NW,10
11/08/2021,10:11:40,36.265305,S,174.788483,E,1.612602,18.792,11/08/2021 10:11,-36.265305,301336.0364,5984355.122,671105061.210811100758.wav,11/08/2021 10:07,0:03:42,0:03:47,SE to NW,10
11/08/2021,10:11:45,36.265148,S,174.788254,E,1.694084,18.936001,11/08/2021 10:11,-36.265148,301315.064,5984372.07,671105061.210811100758.wav,11/08/2021 10:07,0:03:47,0:03:52,SE to NW,10
11/08/2021,10:11:50,36.264988,S,174.78804,E,1.969871,19.224001,11/08/2021 10:11,-36.264988,301295.4315,5984389.382,671105061.210811100758.wav,11/08/2021 10:07,0:03:52,0:03:57,SE to NW,10
11/08/2021,10:11:55,36.264832,S,174.787827,E,2.006637,18.612,11/08/2021 10:11,-36.264832,301275.899,5984406.252,671105061.210811100758.wav,11/08/2021 10:07,0:03:57,0:04:02,SE to NW,10
11/08/2021,10:12:00,36.264679,S,174.787598,E,1.722496,19.08,11/08/2021 10:12,-36.264679,301254.9364,5984422.757,671105061.210811100758.wav,11/08/2021 10:07,0:04:02,0:04:07,SE to NW,10
11/08/2021,10:12:05,36.264519,S,174.787369,E,1.517418,19.332001,11/08/2021 10:12,-36.264519,301233.9561,5984440.038,671105061.210811100758.wav,11/08/2021 10:07,0:04:07,0:04:12,SE to NW,10
11/08/2021,10:12:10,36.264355,S,174.787155,E,1.202659,19.799999,11/08/2021 10:12,-36.264355,301214.3132,5984457.793,671105061.210811100758.wav,11/08/2021 10:07,0:04:12,0:04:17,SE to NW,10
11/08/2021,10:12:15,36.264187,S,174.786926,E,0.900265,19.764,11/08/2021 10:12,-36.264187,301193.3123,5984475.962,671105061.210811100758.wav,11/08/2021 10:07,0:04:17,0:04:22,SE to NW,10
11/08/2021,10:12:20,36.264008,S,174.786713,E,0.605007,19.799999,11/08/2021 10:12,-36.264008,301173.7211,5984495.383,671105061.210811100758.wav,11/08/2021 10:07,0:04:22,0:04:27,SE to NW,10
11/08/2021,10:12:25,36.263824,S,174.786514,E,0.55714,19.799999,11/08/2021 10:12,-36.263824,301155.3749,5984515.388,671105061.210811100758.wav,11/08/2021 10:07,0:04:27,0:04:32,SE to NW,10
11/08/2021,10:12:30,36.263638,S,174.786346,E,1.005607,18.684,11/08/2021 10:12,-36.263638,301139.8088,5984535.679,671105061.210811100758.wav,11/08/2021 10:07,0:04:32,0:04:37,SE to NW,10
11/08/2021,10:12:35,36.263462,S,174.786148,E,1.148033,18.468,11/08/2021 10:12,-36.263462,301121.5726,5984554.798,671105061.210811100758.wav,11/08/2021 10:07,0:04:37,0:04:42,SE to NW,10
11/08/2021,10:12:40,36.263306,S,174.78595,E,1.186729,18.035999,11/08/2021 10:12,-36.263306,301103.387,5984571.699,671105061.210811100758.wav,11/08/2021 10:07,0:04:42,0:04:47,SE to NW,10
11/08/2021,10:12:45,36.263142,S,174.785751,E,1.090751,18.323999,11/08/2021 10:12,-36.263142,301085.0913,5984589.485,671105061.210811100758.wav,11/08/2021 10:07,0:04:47,0:04:52,SE to NW,10
